軌道要素
Epoch 2019 Apr. 27.0 TT = JDT 2458600.5
T 2019 May 11.84137 TT Rudenko
q 1.5775534 (2000.0) P Q
z +0.0072238 Peri. 70.47651 +0.40560016 +0.80114188
+/-0.0000020 Node 231.71811 -0.89448725 +0.44696468
e 0.9886040 Incl. 34.09845 +0.18809857 +0.39798776
From 707 observations 2019 Feb. 26-Dec. 4, mean residual 0".6.
|